Regional Weather Roundup
Issued by NWS Little Rock, AR

Home | Current Version | Previous Version | Text Only | Print | Product List | Glossary Off
Versions: 1 2 3 4 5 6 7 8 9 10 11 12 13 14 15 16 17 18 19 20 21 22 23 24 25 26 27 28 29 30 31 32 33 34 35 36 37 38 39 40 41 42 43 44 45 46 47 48 49 50

000
ASUS44 KLZK 310005
RWRLZK

WEATHER ROUNDUP FOR ARKANSAS
NATIONAL WEATHER SERVICE LITTLE ROCK AR
700 PM CDT SAT JUL 30 2016

NOTE: "FAIR" INDICATES FEW OR NO CLOUDS BELOW 12,000 FEET WITH NO
SIGNIFICANT WEATHER AND/OR OBSTRUCTIONS TO VISIBILITY.

ARZ001-003-010-029-310100-
NORTHWEST ARKANSAS

CITY           SKY/WX    TMP DP  RH WIND       PRES   REMARKS
FAYETTEVILLE   PTSUNNY   80  72  76 S12       29.98F
6HR MIN TEMP:  68; 6HR MAX TEMP:  84; 6HR PCP:  0.60;

FORT SMITH     CLOUDY    83  70  64 S6        29.93F HX  87
6HR MIN TEMP:  83; 6HR MAX TEMP:  88;

HARRISON       CLOUDY    74  69  85 SE7       29.99S
6HR MIN TEMP:  69; 6HR MAX TEMP:  87; 6HR PCP:  0.34;

BENTONVILLE    MOSUNNY   79  66  65 S6        29.99S
6HR MIN TEMP:  70; 6HR MAX TEMP:  84; 6HR PCP:  0.31;

ROGERS         PTSUNNY   78  70  76 SE5       29.99S
6HR MIN TEMP:  70; 6HR MAX TEMP:  84; 6HR PCP:  0.04;

SILOAM SPGS    PTSUNNY   81  64  57 SW6       29.99F
6HR MIN TEMP:  70; 6HR MAX TEMP:  82; 6HR PCP:  0.49;

HIGHFILL       PTSUNNY   77  70  79 S5        29.98S
6HR MIN TEMP:  69; 6HR MAX TEMP:  85; 6HR PCP:  0.50;

SPRINGDALE     SUNNY     79  70  73 S7        30.00S
$$

ARZ004-005-016-310100-
NORTH CENTRAL ARKANSAS

CITY           SKY/WX    TMP DP  RH WIND       PRES   REMARKS
BATESVILLE     CLOUDY    79  75  89 CALM      29.95F
6HR MIN TEMP:  79; 6HR MAX TEMP:  90;

FLIPPIN        CLOUDY    77  70  78 SW6       29.94S
6HR MIN TEMP:  75; 6HR MAX TEMP:  88; 6HR PCP:  0.01;

MTN HOME       CLOUDY    75  72  90 S6        29.96R
6HR MIN TEMP:  74; 6HR MAX TEMP:  87; 6HR PCP:  0.01;

$$

ARZ040-041-310100-
WEST CENTRAL ARKANSAS

CITY           SKY/WX    TMP DP  RH WIND       PRES   REMARKS
MENA             N/A    N/A N/A N/A MISG        N/A
MOUNT IDA      LGT RAIN  73  72  96 CALM      29.94F
6HR MIN TEMP:  73; 6HR MAX TEMP:  92; 6HR PCP:  0.05;

$$

ARZ009-017-025-026-028-310100-
NORTHEAST ARKANSAS

CITY           SKY/WX    TMP DP  RH WIND       PRES   REMARKS
CORNING          N/A     81  77  89 SE3       29.95F HX  88
JONESBORO      CLOUDY    85  73  67 S6        29.95S HX  91
6HR MIN TEMP:  85; 6HR MAX TEMP:  90;

NEWPORT        CLOUDY    82  73  74 S7        29.95F HX  87
6HR MIN TEMP:  82; 6HR MAX TEMP:  91;

WALNUT RIDGE   CLOUDY    84  73  70 SE6       29.93F HX  91
6HR MIN TEMP:  84; 6HR MAX TEMP:  90;

BLYTHEVILLE    CLOUDY    85  74  69 S5        29.96S HX  92
6HR MIN TEMP:  84; 6HR MAX TEMP:  90;

$$

ARZ022-023-033-042-044-310100-
CENTRAL ARKANSAS

CITY           SKY/WX    TMP DP  RH WIND       PRES   REMARKS
LITTLE ROCK    TSTM      75  71  87 E8        29.97F FOG
6HR MIN TEMP:  75; 6HR MAX TEMP:  94; 6HR PCP:  0.29;

N LITTLE ROCK    N/A     73  71  95 S5        29.94F
6HR MIN TEMP:  72; 6HR MAX TEMP:  90;

JACKSONVILLE   LGT RAIN  73  72  99 NE2       29.98F
6HR MIN TEMP:  73; 6HR MAX TEMP:  92; 6HR PCP:  0.19;

SEARCY         CLOUDY    73  72  96 SW8       29.91F
6HR MIN TEMP:  73; 6HR MAX TEMP:  93; 6HR PCP:  0.31;

HOT SPRINGS    LGT RAIN  74  72  93 E9        29.96F
6HR MIN TEMP:  73; 6HR MAX TEMP:  90; 6HR PCP:  0.10;

RUSSELLVILLE   PTSUNNY   75  71  87 CALM      29.96F
6HR MIN TEMP:  75; 6HR MAX TEMP:  90;

$$

ARZ036-310100-
EAST ARKANSAS

CITY           SKY/WX    TMP DP  RH WIND       PRES   REMARKS
WEST MEMPHIS   SUNNY     81  75  82 W3        29.96R HX  87
6HR MIN TEMP:  81; 6HR MAX TEMP:  89;

$$

ARZ050-053-066-070-073-310100-
SOUTHWEST ARKANSAS

CITY           SKY/WX    TMP DP  RH WIND       PRES   REMARKS
ARKADELPHIA    LGT RAIN  73  71  93 S6        29.95F
6HR MIN TEMP:  73; 6HR MAX TEMP:  94; 6HR PCP:  0.26;

TEXARKANA      CLOUDY    78  69  73 E12G23    29.98S
6HR MIN TEMP:  78; 6HR MAX TEMP:  96;

EL DORADO      CLOUDY    75  71  87 NW17      30.00R
6HR MIN TEMP:  75; 6HR MAX TEMP:  94; 6HR PCP:  0.19;

DE QUEEN       CLOUDY    76  72  87 E3        29.92F
6HR MIN TEMP:  75; 6HR MAX TEMP:  92;

$$

ARZ056-057-069-310100-
SOUTHEAST ARKANSAS

CITY           SKY/WX    TMP DP  RH WIND       PRES   REMARKS
PINE BLUFF     CLOUDY    85  73  67 N21G29    29.99R HX  91
6HR MIN TEMP:  85; 6HR MAX TEMP:  92;

STUTTGART      CLOUDY    72  66  83 W9        30.03R THUNDER
6HR MIN TEMP:  72; 6HR MAX TEMP:  91; 6HR PCP:  0.56;

MONTICELLO     PTSUNNY   82  71  69 E7        29.94F HX  86
6HR MIN TEMP:  82; 6HR MAX TEMP:  96;


$$





USA.gov is the U.S. government's official web portal to all federal, state and local government web resources and services.